Lid_Strength_Index
0 1 1 1 0 1 2 3 3 4 3 5 6 8 8 8 8 8 7 7 5 2 1 -0 -1 -1 -1 -1 -1 -1 -1 -0 0 1 1 -0 -1 -1 -0 -1 -1 -1 -2
1 2 2 2 2 2 2 2 3 3 3 5 6 8 8 8 8 8 8 7 6 4 2 0 -1 -1 -1 -1 -1 -1 -1 -1 0 1 1 1 -0 -1 -0 -0 -0 -0 -0
2 2 2 2 2 3 3 4 5 5 6 6 6 7 8 8 8 8 8 8 7 6 4 1 -0 -1 -1 -2 -1 -1 -1 -2 0 1 2 1 1 1 1 1 1 1 0
3 3 4 4 3 4 4 5 5 6 7 7 8 7 8 8 9 9 8 8 7 7 6 4 2 1 1 -1 -2 -2 -2 -2 -0 1 2 1 1 1 1 2 2 1 1
4 4 4 4 4 4 5 6 7 7 8 8 9 9 9 9 9 9 9 9 8 7 6 6 5 4 3 1 -0 -1 -2 -2 -1 0 2 2 1 2 2 2 2 2 2
8 6 6 6 5 6 6 6 7 8 9 10 10 10 10 10 10 9 9 9 9 9 8 8 6 6 6 3 2 -0 -1 -2 -1 -1 0 1 2 1 1 2 2 2 2
10 10 8 8 7 8 8 8 7 8 8 10 10 9 10 10 11 10 10 10 10 10 10 9 8 8 7 6 5 3 0 -1 -2 -1 -1 0 1 2 2 2 2 2 2
12 12 11 11 11 10 10 10 9 8 9 10 10 11 11 9 10 10 11 11 10 11 10 10 10 10 9 8 8 5 3 1 -1 -2 -2 -1 0 1 2 2 2 2 2
14 13 13 13 13 12 12 12 11 10 10 9 10 10 11 12 12 8 10 11 11 10 10 10 11 10 10 9 9 8 7 5 3 1 -0 -2 -1 0 1 2 2 2 2
14 14 13 13 13 13 13 13 13 12 11 12 10 10 11 12 13 13 10 9 10 11 10 10 10 10 10 9 9 9 9 7 6 4 2 1 -1 -1 0 1 2 2 2
15 14 14 14 14 13 14 13 13 13 12 13 13 12 11 11 12 14 13 12 10 9 10 10 10 10 10 10 10 10 9 7 7 6 5 3 2 0 -1 0 1 2 2
15 14 14 14 14 14 14 14 13 13 13 13 13 13 13 13 13 13 14 13 13 11 10 10 10 10 10 10 11 11 10 8 7 6 5 5 4 2 0 0 1 1 2
15 15 15 14 14 14 14 14 14 14 14 13 13 13 12 13 13 14 14 15 14 13 12 11 10 10 11 10 11 12 11 10 9 7 6 5 5 4 1 1 1 1 2
15 14 14 14 14 14 14 14 14 14 14 14 14 14 13 13 12 12 14 15 17 16 14 12 11 10 10 10 11 11 11 11 10 8 8 7 6 4 2 1 2 2 2
14 14 14 14 14 14 14 14 14 14 14 14 14 14 14 13 13 13 12 13 15 18 17 13 12 11 10 10 9 10 11 11 10 9 8 8 7 5 3 2 2 3 3
14 13 14 14 14 14 14 14 14 14 15 14 14 14 14 13 13 13 13 13 13 14 17 14 12 11 11 11 10 10 10 11 11 10 9 9 8 6 4 4 4 4 3
14 14 14 14 14 15 15 15 15 14 15 15 14 14 14 14 14 13 13 13 14 14 15 14 13 11 11 11 11 10 10 11 11 11 10 10 9 7 6 5 5 4 4
14 14 15 15 15 15 15 15 15 15 15 15 15 14 14 14 14 14 13 14 14 13 14 16 15 13 12 11 11 11 11 11 11 11 10 10 9 9 8 6 5 5 5
15 16 16 16 16 16 16 16 15 15 15 15 15 15 15 15 15 14 14 14 13 13 13 14 16 14 13 11 11 11 11 10 10 9 9 10 10 9 9 8 7 6 6
16 16 16 16 16 16 16 15 15 15 14 14 13 14 14 14 15 14 14 14 13 13 13 14 15 15 14 13 12 12 12 10 11 10 10 9 9 10 9 9 8 8 7
16 17 17 17 17 16 14 14 13 13 13 13 13 13 13 13 13 13 13 13 13 14 14 14 14 14 15 15 14 12 12 11 10 10 11 10 10 10 9 9 9 9 7
17 17 17 17 17 15 13 12 11 13 13 14 14 14 14 14 14 13 12 12 12 14 15 15 15 15 15 14 14 14 14 14 14 10 10 11 10 11 10 9 9 7 7
17 17 17 17 17 16 13 12 11 13 13 14 15 15 15 14 14 15 14 13 13 12 12 13 15 15 15 14 14 16 16 16 15 13 12 12 10 11 10 10 9 8 7
18 17 17 17 17 16 13 12 12 13 14 14 14 14 15 15 14 14 14 14 14 13 13 13 13 13 13 12 13 13 14 15 14 13 12 15 12 11 9 9 9 9 8
18 18 17 18 18 18 14 12 12 13 14 14 14 14 14 14 13 11 12 13 13 12 11 10 10 10 10 10 10 12 14 15 16 15 12 13 12 12 11 10 9 9 8
18 18 18 18 19 19 16 13 12 13 14 14 13 13 11 11 10 9 11 12 14 13 13 13 12 12 11 11 10 11 12 15 15 16 13 14 13 13 13 10 10 9 9